DAWBF LEPA-EDRY

Flight info

Callsign DAWBF
Flight time 1h 36m
Altitude 40000
Route MEROS N853 LUMAS/N0461F300 UM976 SOSUR DCT CSL DCT SOPER DCT ZUE T163 KOVAN
Aircraft CL60/M-SADE3FGHIJ1J3J4J7P2RWXY/HB1D1

Departure

Time 2026-05-06 13:15
Airport Palma de Mallorca Airport (LEPA)

Arrival

Time 2026-05-06 14:51
Airport Speyer Airfield (EDRY)
Time Latitude Longitude Altitude Speed Heading
2026-05-06 13:05 39.54299 2.72729 33 ft 0 kts 150°
2026-05-06 13:13 39.54290 2.72735 33 ft 5 kts 150°
2026-05-06 13:13 39.54272 2.72816 34 ft 9 kts 111°
2026-05-06 13:13 39.54215 2.72879 35 ft 11 kts 118°
2026-05-06 13:13 39.54178 2.72937 35 ft 5 kts 138°
2026-05-06 13:14 39.54154 2.72988 35 ft 7 kts 97°
2026-05-06 13:14 39.54150 2.73078 36 ft 13 kts 93°
2026-05-06 13:14 39.54148 2.73222 37 ft 17 kts 73°
2026-05-06 13:14 39.54279 2.73509 37 ft 77 kts 62°
2026-05-06 13:15 39.54735 2.74472 49 ft 165 kts 61°
2026-05-06 13:15 39.55369 2.75836 763 ft 184 kts 60°
2026-05-06 13:15 39.56029 2.77240 1782 ft 193 kts 58°
2026-05-06 13:15 39.56741 2.78702 2819 ft 203 kts 57°
2026-05-06 13:16 39.57520 2.80246 3867 ft 212 kts 56°
2026-05-06 13:16 39.58349 2.81908 4641 ft 229 kts 56°
2026-05-06 13:16 39.59192 2.83628 5502 ft 228 kts 57°
2026-05-06 13:16 39.60010 2.85414 6342 ft 232 kts 58°
2026-05-06 13:17 39.60829 2.87223 7179 ft 237 kts 58°
2026-05-06 13:17 39.61666 2.89067 8040 ft 242 kts 58°
2026-05-06 13:17 39.62511 2.90931 8907 ft 247 kts 58°
2026-05-06 13:17 39.63411 2.92916 9860 ft 264 kts 58°
2026-05-06 13:18 39.64372 2.95044 10702 ft 288 kts 58°
2026-05-06 13:18 39.65412 2.97364 11580 ft 308 kts 59°
2026-05-06 13:18 39.66488 2.99793 12569 ft 320 kts 60°
2026-05-06 13:18 39.67589 3.02311 13618 ft 329 kts 60°
2026-05-06 13:19 39.68724 3.04951 14661 ft 337 kts 61°
2026-05-06 13:19 39.69836 3.07631 15695 ft 342 kts 62°
2026-05-06 13:19 39.70953 3.10349 16661 ft 347 kts 61°
2026-05-06 13:19 39.72098 3.13140 17537 ft 352 kts 62°
2026-05-06 13:20 39.73252 3.15951 18322 ft 358 kts 62°
2026-05-06 13:20 39.74425 3.18815 19076 ft 364 kts 62°
2026-05-06 13:20 39.75617 3.21728 19816 ft 370 kts 62°
2026-05-06 13:20 39.76827 3.24686 20534 ft 375 kts 62°
2026-05-06 13:21 39.78279 3.27513 21254 ft 378 kts 49°
2026-05-06 13:21 39.80020 3.30117 21908 ft 384 kts 47°
2026-05-06 13:21 39.81759 3.32714 22566 ft 389 kts 47°
2026-05-06 13:21 39.83548 3.35393 23221 ft 394 kts 47°
2026-05-06 13:22 39.85348 3.38092 23861 ft 400 kts 47°
2026-05-06 13:22 39.87172 3.40830 24533 ft 404 kts 47°
2026-05-06 13:22 39.89017 3.43604 25150 ft 409 kts 47°
2026-05-06 13:22 39.90893 3.46426 25775 ft 414 kts 47°
2026-05-06 13:23 39.92835 3.49351 26400 ft 419 kts 47°
2026-05-06 13:23 39.94804 3.52320 27063 ft 423 kts 47°
2026-05-06 13:23 39.96737 3.55238 27699 ft 427 kts 47°
2026-05-06 13:23 39.98695 3.58196 28280 ft 432 kts 47°
2026-05-06 13:24 40.00661 3.61171 28835 ft 436 kts 47°
2026-05-06 13:24 40.02649 3.64181 29382 ft 441 kts 47°
2026-05-06 13:24 40.04649 3.67213 29884 ft 445 kts 48°
2026-05-06 13:24 40.06688 3.70306 30394 ft 449 kts 48°
2026-05-06 13:25 40.08723 3.73398 30879 ft 453 kts 48°
2026-05-06 13:25 40.10776 3.76520 31323 ft 456 kts 48°
2026-05-06 13:25 40.12846 3.79670 31756 ft 460 kts 48°
2026-05-06 13:25 40.14936 3.82855 32175 ft 463 kts 48°
2026-05-06 13:26 40.17017 3.86030 32626 ft 464 kts 48°
2026-05-06 13:26 40.19139 3.89270 32990 ft 468 kts 48°
2026-05-06 13:26 40.21252 3.92501 33341 ft 471 kts 48°
2026-05-06 13:26 40.23392 3.95776 33715 ft 473 kts 48°
2026-05-06 13:27 40.25516 3.99030 34134 ft 473 kts 48°
2026-05-06 13:27 40.27633 4.02277 34574 ft 472 kts 48°
2026-05-06 13:27 40.29764 4.05549 34966 ft 471 kts 48°
2026-05-06 13:27 40.31876 4.08795 35324 ft 470 kts 47°
2026-05-06 13:28 40.34006 4.12071 35677 ft 469 kts 47°
2026-05-06 13:28 40.36102 4.15299 36002 ft 468 kts 47°
2026-05-06 13:28 40.38184 4.18509 36307 ft 467 kts 47°
2026-05-06 13:28 40.40293 4.21763 36624 ft 468 kts 47°
2026-05-06 13:29 40.42385 4.24994 36900 ft 468 kts 47°
2026-05-06 13:29 40.44537 4.28228 37207 ft 467 kts 44°
2026-05-06 13:29 40.46893 4.31148 37516 ft 464 kts 36°
2026-05-06 13:29 40.49448 4.33647 37800 ft 460 kts 28°
2026-05-06 13:30 40.52216 4.35747 38044 ft 456 kts 21°
2026-05-06 13:30 40.55096 4.37376 38287 ft 451 kts 13°
2026-05-06 13:30 40.58083 4.38547 38510 ft 446 kts
2026-05-06 13:30 40.61091 4.39324 38736 ft 443 kts
2026-05-06 13:31 40.64125 4.40051 38955 ft 443 kts
2026-05-06 13:31 40.67159 4.40783 39159 ft 443 kts
2026-05-06 13:31 40.70178 4.41511 39392 ft 443 kts
2026-05-06 13:31 40.73189 4.42237 39570 ft 443 kts
2026-05-06 13:32 40.76226 4.42969 39723 ft 443 kts
2026-05-06 13:32 40.79254 4.43700 39881 ft 443 kts
2026-05-06 13:32 40.82312 4.44437 39949 ft 446 kts
2026-05-06 13:33 40.88449 4.45915 39948 ft 455 kts
2026-05-06 13:33 40.94739 4.47437 39934 ft 464 kts
2026-05-06 13:34 41.01166 4.48998 39955 ft 471 kts
2026-05-06 13:34 41.07623 4.50568 39930 ft 478 kts
2026-05-06 13:35 41.14252 4.52183 39950 ft 484 kts
2026-05-06 13:35 41.20866 4.53798 39959 ft 487 kts
2026-05-06 13:36 41.27566 4.55436 39955 ft 490 kts
2026-05-06 13:36 41.34248 4.57074 39946 ft 491 kts
2026-05-06 13:37 41.40980 4.58728 39936 ft 492 kts
2026-05-06 13:37 41.47699 4.60382 39945 ft 490 kts
2026-05-06 13:38 41.54364 4.62024 39949 ft 490 kts
2026-05-06 13:38 41.61070 4.63681 39952 ft 490 kts
2026-05-06 13:39 41.67782 4.65342 39949 ft 490 kts
2026-05-06 13:39 41.74456 4.67123 39954 ft 493 kts 11°
2026-05-06 13:40 41.81062 4.69723 39941 ft 496 kts 12°
2026-05-06 13:40 41.87661 4.72351 39950 ft 496 kts 12°
2026-05-06 13:41 41.94284 4.74990 39952 ft 496 kts 12°
2026-05-06 13:41 42.00885 4.77623 39941 ft 497 kts 12°
2026-05-06 13:42 42.07478 4.80257 39945 ft 496 kts 12°
2026-05-06 13:42 42.14090 4.82902 39941 ft 495 kts 12°
2026-05-06 13:43 42.20687 4.85547 39939 ft 495 kts 12°
2026-05-06 13:43 42.27330 4.88213 39947 ft 496 kts 12°
2026-05-06 13:44 42.33927 4.90867 39949 ft 496 kts 13°
2026-05-06 13:44 42.40544 4.93534 39950 ft 496 kts 12°
2026-05-06 13:45 42.47112 4.96187 39926 ft 496 kts 13°
2026-05-06 13:45 42.56860 5.00936 39929 ft 502 kts 25°
2026-05-06 13:46 42.62716 5.06072 39939 ft 504 kts 33°
2026-05-06 13:46 42.68445 5.11520 39920 ft 503 kts 33°
2026-05-06 13:47 42.74181 5.16979 39923 ft 503 kts 32°
2026-05-06 13:47 42.79917 5.22447 39915 ft 503 kts 33°
2026-05-06 13:48 42.85612 5.27884 39909 ft 503 kts 33°
2026-05-06 13:48 42.91351 5.33374 39918 ft 504 kts 33°
2026-05-06 13:49 42.97086 5.38873 39910 ft 504 kts 33°
2026-05-06 13:49 43.02832 5.44392 39921 ft 504 kts 33°
2026-05-06 13:50 43.08529 5.49876 39920 ft 504 kts 33°
2026-05-06 13:50 43.14191 5.55339 39919 ft 504 kts 33°
2026-05-06 13:51 43.19906 5.60866 39904 ft 503 kts 33°
2026-05-06 13:51 43.25608 5.66392 39897 ft 503 kts 33°
2026-05-06 13:52 43.31344 5.71963 39909 ft 503 kts 33°
2026-05-06 13:52 43.37027 5.77496 39893 ft 503 kts 33°
2026-05-06 13:53 43.42745 5.83076 39897 ft 504 kts 33°
2026-05-06 13:53 43.48426 5.88633 39896 ft 504 kts 34°
2026-05-06 13:54 43.54147 5.94242 39898 ft 504 kts 34°
2026-05-06 13:54 43.59844 5.99840 39902 ft 503 kts 34°
2026-05-06 13:55 43.65527 6.05438 39893 ft 503 kts 34°
2026-05-06 13:55 43.71198 6.11038 39885 ft 503 kts 34°
2026-05-06 13:56 43.76915 6.16696 39889 ft 503 kts 34°
2026-05-06 13:56 43.82594 6.22330 39891 ft 503 kts 34°
2026-05-06 13:57 43.88250 6.27955 39889 ft 503 kts 34°
2026-05-06 13:57 43.93923 6.33610 39889 ft 502 kts 34°
2026-05-06 13:58 43.99597 6.39279 39882 ft 502 kts 34°
2026-05-06 13:58 44.05238 6.44929 39879 ft 502 kts 34°
2026-05-06 13:59 44.10896 6.50609 39890 ft 502 kts 34°
2026-05-06 13:59 44.16584 6.56334 39883 ft 502 kts 34°
2026-05-06 14:00 44.22242 6.62043 39877 ft 502 kts 34°
2026-05-06 14:00 44.27861 6.67725 39869 ft 503 kts 35°
2026-05-06 14:01 44.33534 6.73477 39862 ft 502 kts 35°
2026-05-06 14:01 44.39155 6.79188 39860 ft 503 kts 35°
2026-05-06 14:02 44.44802 6.84941 39865 ft 502 kts 35°
2026-05-06 14:02 44.50460 6.90720 39864 ft 502 kts 35°
2026-05-06 14:03 44.56079 6.96472 39869 ft 502 kts 35°
2026-05-06 14:03 44.61723 7.02264 39867 ft 502 kts 35°
2026-05-06 14:04 44.67330 7.08032 39870 ft 503 kts 35°
2026-05-06 14:04 44.72976 7.13855 39891 ft 502 kts 35°
2026-05-06 14:05 44.78592 7.19660 39890 ft 503 kts 35°
2026-05-06 14:05 44.84222 7.25495 39892 ft 504 kts 35°
2026-05-06 14:06 44.89888 7.31382 39871 ft 504 kts 35°
2026-05-06 14:06 44.95509 7.37237 39875 ft 503 kts 35°
2026-05-06 14:07 45.01143 7.43119 39848 ft 502 kts 35°
2026-05-06 14:07 45.06842 7.49084 39819 ft 502 kts 35°
2026-05-06 14:08 45.12429 7.54948 39817 ft 501 kts 35°
2026-05-06 14:08 45.18041 7.60850 39824 ft 501 kts 35°
2026-05-06 14:09 45.23865 7.66451 39820 ft 500 kts 27°
2026-05-06 14:09 45.30001 7.71046 39825 ft 500 kts 26°
2026-05-06 14:10 45.36156 7.75668 39830 ft 500 kts 26°
2026-05-06 14:10 45.42324 7.80313 39851 ft 501 kts 26°
2026-05-06 14:11 45.48428 7.84924 39871 ft 500 kts 26°
2026-05-06 14:11 45.54587 7.89588 39888 ft 500 kts 26°
2026-05-06 14:12 45.60749 7.94268 39915 ft 500 kts 26°
2026-05-06 14:12 45.66880 7.98937 39906 ft 501 kts 26°
2026-05-06 14:13 45.73034 8.03635 39916 ft 501 kts 26°
2026-05-06 14:13 45.79181 8.08341 39931 ft 500 kts 26°
2026-05-06 14:14 45.85351 8.13076 39922 ft 500 kts 27°
2026-05-06 14:14 45.91526 8.17827 39893 ft 502 kts 26°
2026-05-06 14:15 45.97639 8.22543 39904 ft 502 kts 26°
2026-05-06 14:15 46.03772 8.27286 39902 ft 501 kts 26°
2026-05-06 14:16 46.09901 8.32038 39889 ft 502 kts 27°
2026-05-06 14:16 46.16034 8.36806 39896 ft 501 kts 27°
2026-05-06 14:17 46.22161 8.41581 39883 ft 501 kts 26°
2026-05-06 14:17 46.28305 8.46382 39879 ft 500 kts 27°
2026-05-06 14:18 46.34431 8.51182 39873 ft 499 kts 27°
2026-05-06 14:18 46.40487 8.55938 39879 ft 499 kts 26°
2026-05-06 14:19 46.46618 8.60766 39873 ft 499 kts 26°
2026-05-06 14:19 46.52697 8.65565 39871 ft 499 kts 27°
2026-05-06 14:20 46.58840 8.70428 39867 ft 498 kts 27°
2026-05-06 14:20 46.64891 8.75230 39863 ft 498 kts 27°
2026-05-06 14:21 46.70970 8.80067 39862 ft 497 kts 27°
2026-05-06 14:21 46.77049 8.84916 39859 ft 498 kts 27°
2026-05-06 14:22 46.78521 8.86092 39853 ft 498 kts 27°
2026-05-06 14:23 46.82247 8.88928 39875 ft 496 kts 22°
2026-05-06 14:23 46.88753 8.92059 39863 ft 490 kts
2026-05-06 14:24 46.95492 8.93012 39858 ft 484 kts 355°
2026-05-06 14:24 47.02165 8.92088 39853 ft 480 kts 349°
2026-05-06 14:25 47.08783 8.90900 39868 ft 479 kts 349°
2026-05-06 14:25 47.15442 8.89703 39881 ft 479 kts 349°
2026-05-06 14:26 47.22068 8.88509 39886 ft 479 kts 349°
2026-05-06 14:26 47.28723 8.87307 39902 ft 480 kts 349°
2026-05-06 14:27 47.35357 8.86105 39876 ft 481 kts 349°
2026-05-06 14:27 47.41979 8.84904 39494 ft 478 kts 349°
2026-05-06 14:28 47.45232 8.84314 38934 ft 475 kts 349°
2026-05-06 14:28 47.48509 8.83718 38383 ft 472 kts 349°
2026-05-06 14:28 47.51806 8.83117 37741 ft 475 kts 349°
2026-05-06 14:28 47.55088 8.82578 37112 ft 477 kts 352°
2026-05-06 14:29 47.58429 8.82499 36474 ft 482 kts 359°
2026-05-06 14:29 47.61784 8.83023 35811 ft 488 kts
2026-05-06 14:29 47.65063 8.84131 35160 ft 492 kts 13°
2026-05-06 14:29 47.68367 8.85483 34499 ft 494 kts 13°
2026-05-06 14:30 47.71686 8.86842 33803 ft 494 kts 13°
2026-05-06 14:30 47.75008 8.88202 33021 ft 492 kts 14°
2026-05-06 14:30 47.78316 8.89449 32288 ft 487 kts
2026-05-06 14:30 47.81652 8.90119 31554 ft 481 kts
2026-05-06 14:31 47.84979 8.90603 30827 ft 477 kts
2026-05-06 14:31 47.88267 8.91090 30047 ft 472 kts
2026-05-06 14:31 47.91339 8.91546 29334 ft 467 kts
2026-05-06 14:31 47.94585 8.92029 28566 ft 461 kts
2026-05-06 14:32 47.97733 8.92498 27806 ft 455 kts
2026-05-06 14:32 48.00855 8.92963 27024 ft 448 kts
2026-05-06 14:32 48.03917 8.93421 26249 ft 440 kts
2026-05-06 14:32 48.06960 8.93875 25456 ft 432 kts
2026-05-06 14:33 48.09908 8.94316 24676 ft 424 kts
2026-05-06 14:33 48.12822 8.94753 23887 ft 416 kts
2026-05-06 14:33 48.15676 8.95180 23099 ft 409 kts
2026-05-06 14:33 48.18467 8.95599 22319 ft 401 kts
2026-05-06 14:34 48.21248 8.96018 21555 ft 393 kts
2026-05-06 14:34 48.23928 8.96421 21055 ft 387 kts
2026-05-06 14:34 48.26568 8.96820 20509 ft 379 kts
2026-05-06 14:34 48.29190 8.97217 20022 ft 369 kts
2026-05-06 14:35 48.31707 8.97598 19534 ft 360 kts
2026-05-06 14:35 48.34157 8.97970 19075 ft 352 kts
2026-05-06 14:35 48.36584 8.98339 18604 ft 348 kts
2026-05-06 14:35 48.38974 8.98701 18140 ft 344 kts
2026-05-06 14:36 48.41343 8.99061 17693 ft 341 kts
2026-05-06 14:36 48.43691 8.99418 17241 ft 338 kts
2026-05-06 14:36 48.46017 8.99440 16790 ft 334 kts 350°
2026-05-06 14:36 48.48215 8.98371 16323 ft 329 kts 334°
2026-05-06 14:37 48.50256 8.96882 15883 ft 326 kts 333°
2026-05-06 14:37 48.52285 8.95407 15463 ft 323 kts 333°
2026-05-06 14:37 48.54314 8.93933 15030 ft 320 kts 333°
2026-05-06 14:37 48.56297 8.92493 14621 ft 317 kts 333°
2026-05-06 14:38 48.58286 8.91047 14195 ft 314 kts 333°
2026-05-06 14:38 48.60227 8.89634 13783 ft 311 kts 333°
2026-05-06 14:38 48.62187 8.88208 13373 ft 308 kts 333°
2026-05-06 14:38 48.64104 8.86808 12963 ft 305 kts 333°
2026-05-06 14:39 48.66007 8.85418 12552 ft 302 kts 333°
2026-05-06 14:39 48.67895 8.84040 12149 ft 299 kts 332°
2026-05-06 14:39 48.69766 8.82672 11754 ft 297 kts 333°
2026-05-06 14:39 48.71606 8.81330 11360 ft 294 kts 332°
2026-05-06 14:40 48.73423 8.79997 10993 ft 289 kts 331°
2026-05-06 14:40 48.75230 8.78674 10593 ft 286 kts 332°
2026-05-06 14:40 48.77017 8.77367 10194 ft 283 kts 333°
2026-05-06 14:40 48.78793 8.76067 9831 ft 282 kts 332°
2026-05-06 14:41 48.80549 8.74778 9461 ft 281 kts 332°
2026-05-06 14:41 48.82302 8.73490 9088 ft 279 kts 332°
2026-05-06 14:41 48.84027 8.72223 8674 ft 274 kts 332°
2026-05-06 14:41 48.85744 8.70961 8072 ft 271 kts 332°
2026-05-06 14:42 48.87425 8.69723 7577 ft 265 kts 332°
2026-05-06 14:42 48.89041 8.68534 7196 ft 255 kts 332°
2026-05-06 14:42 48.90619 8.67373 6809 ft 247 kts 331°
2026-05-06 14:42 48.92156 8.66238 6302 ft 245 kts 331°
2026-05-06 14:43 48.93682 8.65111 5759 ft 245 kts 331°
2026-05-06 14:43 48.95213 8.63979 5237 ft 243 kts 331°
2026-05-06 14:43 48.96720 8.62864 4727 ft 240 kts 331°
2026-05-06 14:43 48.98228 8.61748 4182 ft 239 kts 331°
2026-05-06 14:44 48.99695 8.60662 3686 ft 236 kts 331°
2026-05-06 14:44 49.01147 8.59589 3529 ft 220 kts 331°
2026-05-06 14:44 49.02456 8.58625 3505 ft 201 kts 330°
2026-05-06 14:45 49.04850 8.56852 3490 ft 183 kts 330°
2026-05-06 14:45 49.05980 8.56011 3482 ft 181 kts 330°
2026-05-06 14:45 49.07124 8.55158 3481 ft 180 kts 330°
2026-05-06 14:45 49.08240 8.54327 3483 ft 180 kts 330°
2026-05-06 14:46 49.09405 8.53609 3483 ft 182 kts 340°
2026-05-06 14:46 49.10636 8.53145 3486 ft 183 kts 342°
2026-05-06 14:46 49.11879 8.52673 3484 ft 182 kts 341°
2026-05-06 14:46 49.13110 8.52183 3331 ft 184 kts 341°
2026-05-06 14:47 49.14360 8.51682 3101 ft 182 kts 341°
2026-05-06 14:47 49.15564 8.51201 3022 ft 167 kts 341°
2026-05-06 14:47 49.16671 8.50755 3031 ft 163 kts 340°
2026-05-06 14:47 49.17773 8.50307 3016 ft 161 kts 340°
2026-05-06 14:48 49.18855 8.49868 2857 ft 166 kts 341°
2026-05-06 14:48 49.19970 8.49420 2612 ft 160 kts 341°
2026-05-06 14:48 49.21036 8.48991 2363 ft 160 kts 341°
2026-05-06 14:48 49.22062 8.48583 2134 ft 139 kts 341°
2026-05-06 14:49 49.22925 8.48244 1953 ft 120 kts 338°
2026-05-06 14:49 49.23792 8.47875 1668 ft 140 kts 339°
2026-05-06 14:49 49.24693 8.47513 1522 ft 131 kts 340°
2026-05-06 14:49 49.25601 8.47161 1320 ft 138 kts 341°
2026-05-06 14:50 49.26545 8.46805 1165 ft 132 kts 342°
2026-05-06 14:50 49.27410 8.46471 877 ft 129 kts 343°
2026-05-06 14:50 49.28278 8.46125 661 ft 127 kts 340°
2026-05-06 14:50 49.29119 8.45734 482 ft 129 kts 341°
2026-05-06 14:51 49.29994 8.45371 330 ft 124 kts 342°
2026-05-06 14:51 49.30597 8.45127 320 ft 35 kts 346°
2026-05-06 14:51 49.30728 8.45072 320 ft 18 kts 343°
2026-05-06 14:51 49.30829 8.45038 320 ft 8 kts 20°
2026-05-06 14:52 49.30847 8.45110 320 ft 4 kts 99°
2026-05-06 14:52 49.30812 8.45146 320 ft 7 kts 165°
2026-05-06 14:52 49.30748 8.45179 320 ft 11 kts 160°
2026-05-06 14:52 49.30664 8.45222 320 ft 13 kts 163°
2026-05-06 14:53 49.30570 8.45261 320 ft 12 kts 166°
2026-05-06 14:53 49.30480 8.45297 320 ft 12 kts 167°
2026-05-06 14:53 49.30415 8.45322 320 ft 9 kts 165°
2026-05-06 14:53 49.30363 8.45356 320 ft 7 kts 128°
2026-05-06 14:54 49.30369 8.45405 320 ft 3 kts 57°
2026-05-06 14:54 49.30384 8.45403 320 ft 3 kts 264°
2026-05-06 14:54 49.30380 8.45386 320 ft 0 kts 256°